EW1917 Weather Reports


Display with metric or nautical units.
time (UTC)temp
F
wind
direction
speed
MPH
gust
MPH
rain 1hr
in
rain 24hr
in
rain mn
in
humidity
%
barometer
mb
20260507210753 53 88 0.0 2.0 0.00 0.03 0.00 78 1012.8
20260507210259 53 88 2.0 3.0 0.00 0.03 0.00 78 1012.9
20260507205756 53 88 1.0 2.0 0.00 0.03 0.00 79 1012.8
20260507205259 53 87 1.0 3.0 0.00 0.03 0.00 78 1012.8
20260507204750 53 88 0.0 3.0 0.00 0.05 0.00 78 1012.7
20260507204253 53 85 2.0 3.0 0.00 0.06 0.00 78 1012.6
20260507203750 53 121 1.0 3.0 0.00 0.06 0.00 79 1012.6
20260507203253 53 60 1.0 2.0 0.00 0.06 0.00 77 1012.6
20260507202753 53 60 2.0 3.0 0.00 0.06 0.00 78 1012.7
20260507202254 53 60 2.0 3.0 0.00 0.06 0.00 78 1012.7
20260507201753 54 142 1.0 3.0 0.00 0.06 0.00 79 1012.8
20260507201252 54 117 2.0 3.0 0.00 0.06 0.00 78 1012.8
20260507200757 55 107 2.0 2.0 0.00 0.06 0.00 80 1012.7
20260507200259 55 107 0.0 1.0 0.00 0.06 0.00 80 1012.7
20260507195750 55 107 0.0 0.0 0.00 0.06 0.00 79 1012.7
20260507195250 56 107 0.0 2.0 0.00 0.06 0.00 80 1012.8
20260507194750 56 107 0.0 1.0 0.00 0.06 0.00 79 1012.8
20260507194250 56 107 0.0 0.0 0.00 0.06 0.00 79 1012.7
20260507193754 56 107 0.0 3.0 0.00 0.06 0.00 79 1012.6
20260507193250 56 96 2.0 3.0 0.00 0.06 0.00 77 1012.6
20260507192750 56 79 2.0 3.0 0.00 0.06 0.00 76 1012.4
20260507192250 57 88 1.0 4.0 0.00 0.06 0.00 76 1012.4
20260507191751 57 82 2.0 3.0 0.00 0.06 0.00 75 1012.3
20260507191253 57 82 2.0 3.0 0.00 0.06 0.00 75 1012.3
20260507190750 58 86 2.0 3.0 0.00 0.06 0.00 73 1012.0
20260507190250 58 85 2.0 3.0 0.00 0.06 0.00 73 1012.0
20260507185754 59 71 1.0 4.0 0.00 0.06 0.00 72 1011.9
20260507185253 59 58 2.0 3.0 0.00 0.06 0.00 72 1011.8
20260507184751 60 252 1.0 1.0 0.00 0.06 0.00 72 1011.7
20260507184254 60 252 1.0 2.0 0.00 0.06 0.00 71 1011.7
20260507183753 61 113 1.0 4.0 0.00 0.06 0.00 68 1011.6
20260507183251 61 107 3.0 4.0 0.00 0.06 0.00 68 1011.6
20260507182753 61 96 2.0 4.0 0.00 0.06 0.00 68 1011.6
20260507182253 62 120 2.0 4.0 0.00 0.06 0.00 67 1011.7
20260507181759 62 123 3.0 3.0 0.00 0.06 0.00 66 1011.6
20260507181256 63 128 2.0 3.0 0.00 0.06 0.00 65 1011.5
20260507180753 63 130 1.0 3.0 0.00 0.06 0.00 64 1011.5
20260507180254 64 126 2.0 4.0 0.00 0.06 0.00 61 1011.5
20260507175750 64 174 0.0 4.0 0.00 0.06 0.00 60 1011.3
20260507175253 65 163 2.0 4.0 0.00 0.06 0.00 59 1011.3
20260507174758 66 141 2.0 5.0 0.00 0.06 0.00 59 1011.2
20260507174253 66 221 0.0 3.0 0.00 0.06 0.00 62 1011.1
20260507173756 67 181 2.0 4.0 0.00 0.06 0.00 60 1011.1
20260507173250 67 288 2.0 6.0 0.00 0.06 0.00 59 1011.0
20260507172759 67 174 2.0 3.0 0.00 0.06 0.00 60 1010.9
20260507172250 67 281 1.0 5.0 0.00 0.06 0.00 60 1010.9
20260507171753 67 245 2.0 4.0 0.00 0.06 0.00 61 1010.9
20260507171253 67 259 2.0 7.0 0.00 0.06 0.00 59 1010.9
20260507170751 68 259 6.0 8.0 0.00 0.06 0.00 56 1010.9
20260507170250 68 250 2.0 8.0 0.00 0.06 0.00 58 1011.0
20260507165750 69 215 1.0 4.0 0.00 0.06 0.00 57 1011.0
20260507165250 69 261 1.0 7.0 0.00 0.06 0.00 57 1010.9
20260507164756 69 311 2.0 6.0 0.00 0.06 0.00 55 1010.9
20260507164253 69 266 0.0 6.0 0.00 0.06 0.00 56 1011.0
20260507163750 69 233 1.0 7.0 0.00 0.06 0.00 55 1011.0
20260507163253 69 167 0.0 5.0 0.00 0.06 0.00 55 1011.0
20260507162750 69 256 1.0 6.0 0.00 0.06 0.00 55 1010.9
20260507162250 69 264 7.0 11.0 0.00 0.06 0.00 54 1010.9
20260507161753 69 240 3.0 9.0 0.00 0.06 0.00 52 1010.8
20260507161250 69 286 3.0 7.0 0.00 0.06 0.00 52 1010.8
20260507160756 69 233 2.0 6.0 0.00 0.06 0.00 52 1010.7
20260507160254 69 229 3.0 10.0 0.00 0.06 0.00 52 1010.7
20260507155759 69 234 0.0 8.0 0.00 0.06 0.00 51 1010.7
20260507155256 69 284 2.0 10.0 0.00 0.06 0.00 54 1010.7
20260507154750 69 211 3.0 12.0 0.00 0.06 0.00 51 1010.7
20260507154253 70 294 4.0 8.0 0.00 0.06 0.00 51 1010.7
20260507153751 70 281 3.0 6.0 0.00 0.06 0.00 52 1010.7
20260507153250 70 280 4.0 7.0 0.00 0.06 0.00 52 1010.8
20260507152750 69 312 3.0 9.0 0.00 0.06 0.00 54 1010.8
20260507152250 69 205 3.0 10.0 0.00 0.06 0.00 52 1010.7
20260507151753 69 306 4.0 12.0 0.00 0.06 0.00 52 1010.7
20260507151253 69 267 6.0 9.0 0.00 0.06 0.00 54 1010.8
20260507150756 69 272 3.0 8.0 0.00 0.06 0.00 55 1010.8
20260507150250 69 255 2.0 13.0 0.00 0.06 0.00 56 1010.8
20260507145759 70 268 2.0 7.0 0.00 0.06 0.00 55 1010.9
20260507145252 70 159 0.0 5.0 0.00 0.06 0.00 57 1010.9
20260507144751 69 236 4.0 14.0 0.00 0.06 0.00 53 1011.0
20260507144252 70 223 4.0 10.0 0.00 0.06 0.00 54 1011.0
20260507143753 70 260 4.0 10.0 0.00 0.06 0.00 57 1011.1
20260507143257 70 199 1.0 13.0 0.00 0.06 0.00 55 1011.2
20260507142759 71 173 1.0 7.0 0.00 0.06 0.00 55 1011.2
20260507142250 70 199 1.0 7.0 0.00 0.06 0.00 56 1011.0
20260507141750 70 215 5.0 9.0 0.00 0.06 0.00 57 1011.1
20260507141250 70 294 3.0 8.0 0.00 0.06 0.00 57 1011.1
20260507140750 70 266 6.0 10.0 0.00 0.06 0.00 57 1011.0
20260507140250 70 220 5.0 14.0 0.00 0.06 0.00 58 1010.9
20260507135752 70 256 8.0 11.0 0.00 0.06 0.00 56 1010.9
20260507135250 70 227 1.0 9.0 0.00 0.06 0.00 60 1011.0
20260507134751 69 271 4.0 10.0 0.00 0.06 0.00 61 1011.0
20260507134259 69 126 7.0 11.0 0.00 0.06 0.00 59 1011.0
20260507133753 69 268 10.0 10.0 0.00 0.06 0.00 60 1011.1
20260507133256 69 182 2.0 14.0 0.00 0.06 0.00 58 1011.2
20260507132750 69 97 2.0 9.0 0.00 0.06 0.00 61 1011.2
20260507132253 69 232 4.0 10.0 0.00 0.06 0.00 58 1011.3
20260507131753 68 275 3.0 11.0 0.00 0.07 0.00 64 1011.2
20260507131253 68 267 2.0 10.0 0.00 0.08 0.00 61 1011.2
20260507130750 67 252 1.0 8.0 0.00 0.12 0.00 62 1011.2
20260507130250 68 175 3.0 7.0 0.00 0.20 0.00 61 1011.2
20260507125754 68 257 2.0 8.0 0.00 0.22 0.00 62 1011.3
20260507125250 68 240 5.0 9.0 0.00 0.25 0.00 62 1011.3
20260507124753 68 270 1.0 7.0 0.00 0.25 0.00 65 1011.3
20260507124251 67 262 6.0 6.0 0.00 0.25 0.00 65 1011.3
20260507123800 67 211 0.0 6.0 0.00 0.25 0.00 63 1011.3
20260507123254 67 219 2.0 5.0 0.00 0.25 0.00 62 1011.3
20260507122753 67 211 3.0 10.0 0.00 0.25 0.00 63 1011.4
20260507122259 67 294 11.0 11.0 0.00 0.25 0.00 63 1011.4
20260507121750 67 205 1.0 9.0 0.00 0.25 0.00 62 1011.3
20260507121250 67 110 3.0 11.0 0.00 0.25 0.00 66 1011.4
20260507120750 66 131 1.0 9.0 0.00 0.25 0.00 67 1011.3
20260507120250 66 264 8.0 11.0 0.00 0.25 0.00 66 1011.5
20260507115750 66 235 2.0 8.0 0.00 0.25 0.00 64 1011.5
20260507115256 67 216 0.0 7.0 0.00 0.25 0.00 63 1011.5
20260507114751 66 243 2.0 10.0 0.00 0.25 0.00 64 1011.6
20260507114256 67 244 1.0 8.0 0.00 0.25 0.00 67 1011.6
20260507113753 66 264 2.0 7.0 0.00 0.25 0.00 66 1011.7
20260507113256 66 245 1.0 9.0 0.00 0.25 0.00 67 1011.7
20260507112758 66 258 6.0 11.0 0.00 0.25 0.00 68 1011.7
20260507112250 66 198 2.0 8.0 0.00 0.25 0.00 68 1011.8
20260507111750 66 222 2.0 9.0 0.00 0.25 0.00 69 1011.9
20260507111255 66 175 2.0 8.0 0.00 0.25 0.00 66 1011.8
20260507110754 65 196 0.0 11.0 0.00 0.25 0.00 69 1011.9
20260507110250 65 254 9.0 11.0 0.00 0.25 0.00 73 1011.8
20260507105758 65 280 6.0 11.0 0.00 0.25 0.00 68 1011.9
20260507105253 65 250 1.0 8.0 0.00 0.25 0.00 70 1012.0
20260507104753 65 196 5.0 9.0 0.00 0.25 0.00 71 1012.1
20260507104250 65 207 2.0 10.0 0.00 0.25 0.00 69 1012.2
20260507103759 65 277 1.0 9.0 0.00 0.25 0.00 71 1012.2
20260507103253 65 207 1.0 5.0 0.00 0.25 0.00 73 1012.2
20260507102756 64 182 3.0 7.0 0.00 0.25 0.00 72 1012.3
20260507102259 64 140 3.0 8.0 0.00 0.25 0.00 75 1012.2
20260507101753 64 191 2.0 10.0 0.00 0.25 0.00 73 1012.3
20260507101254 63 133 2.0 7.0 0.00 0.25 0.00 78 1012.2
20260507100828 63 182 6.0 9.0 0.00 0.25 0.00 74 1012.4
20260507100253 63 148 6.0 10.0 0.00 0.25 0.00 76 1012.3
20260507095756 62 42 2.0 7.0 0.00 0.25 0.00 78 1012.3
20260507095250 62 261 3.0 9.0 0.00 0.25 0.00 76 1012.3
20260507094753 62 290 0.0 6.0 0.00 0.25 0.00 79 1012.3
20260507094259 62 155 6.0 8.0 0.00 0.25 0.00 78 1012.3
20260507093750 62 117 2.0 8.0 0.00 0.25 0.00 79 1012.4
20260507093250 61 132 1.0 5.0 0.00 0.25 0.00 79 1012.5
20260507092756 61 318 2.0 6.0 0.00 0.25 0.00 80 1012.6
20260507092250 61 226 2.0 6.0 0.00 0.25 0.00 81 1012.6
20260507091750 61 184 2.0 6.0 0.00 0.25 0.00 81 1012.6
20260507091250 61 217 3.0 9.0 0.00 0.25 0.00 81 1012.7
20260507090756 60 185 4.0 6.0 0.00 0.25 0.00 83 1012.6
20260507090252 60 235 2.0 5.0 0.00 0.25 0.00 83 1012.7
20260507085751 59 178 1.0 9.0 0.00 0.25 0.00 83 1012.8
20260507085254 59 192 4.0 4.0 0.00 0.25 0.00 85 1012.8
20260507084750 59 265 3.0 8.0 0.00 0.25 0.00 86 1012.7
20260507084301 58 231 0.0 3.0 0.00 0.25 0.00 87 1012.7
20260507083750 58 111 2.0 4.0 0.00 0.25 0.00 87 1012.7
20260507083250 58 126 3.0 5.0 0.00 0.25 0.00 89 1012.8
20260507082754 57 235 0.0 4.0 0.00 0.25 0.00 91 1012.8
20260507082253 56 258 1.0 8.0 0.00 0.25 0.00 91 1012.7
20260507081750 56 205 2.0 3.0 0.00 0.25 0.00 91 1012.7
20260507081259 56 163 1.0 3.0 0.00 0.25 0.00 91 1012.7
20260507080753 56 253 1.0 3.0 0.00 0.25 0.00 92 1012.8
20260507080250 56 173 1.0 4.0 0.00 0.25 0.00 92 1012.7
20260507075750 56 161 4.0 6.0 0.00 0.25 0.00 93 1012.7
20260507075253 56 183 2.0 2.0 0.00 0.25 0.00 95 1012.7
20260507074753 55 155 0.0 5.0 0.00 0.25 0.00 94 1012.7
20260507074250 55 182 1.0 2.0 0.00 0.25 0.00 95 1012.7
20260507073750 55 252 0.0 2.0 0.00 0.25 0.00 95 1012.7
20260507073250 55 209 2.0 2.0 0.00 0.25 0.00 95 1012.6
20260507072750 55 204 1.0 2.0 0.00 0.25 0.00 95 1012.6
20260507072256 55 202 0.0 2.0 0.00 0.25 0.00 96 1012.6
20260507071754 54 208 0.0 1.0 0.00 0.25 0.00 96 1012.7
20260507071250 54 290 0.0 1.0 0.00 0.25 0.00 96 1012.6
20260507070756 54 290 0.0 2.0 0.00 0.25 0.00 95 1012.6
20260507070250 54 290 0.0 3.0 0.00 0.25 0.00 96 1012.5
20260507065754 54 279 1.0 2.0 0.00 0.25 0.00 95 1012.5
20260507065256 54 285 2.0 3.0 0.00 0.25 0.00 96 1012.4
20260507064750 54 273 2.0 3.0 0.00 0.25 0.00 96 1012.4
20260507064253 54 288 2.0 3.0 0.00 0.25 0.00 96 1012.4
20260507063750 54 269 1.0 1.0 0.00 0.25 0.00 96 1012.4
20260507063253 54 269 0.0 1.0 0.00 0.25 0.00 96 1012.3
20260507062756 54 263 0.0 2.0 0.00 0.25 0.00 96 1012.3
20260507062253 54 254 1.0 3.0 0.00 0.25 0.00 96 1012.4
20260507061751 54 204 0.0 1.0 0.00 0.26 0.00 96 1012.3
20260507061253 53 204 0.0 2.0 0.00 0.26 0.00 96 1012.2
20260507060755 53 173 0.0 2.0 0.00 0.28 0.00 96 1012.2
20260507060256 53 174 0.0 0.0 0.00 0.29 0.00 96 1012.1
20260507055753 53 173 0.0 1.0 0.00 0.29 0.00 96 1012.1
20260507055252 53 173 0.0 2.0 0.00 0.32 0.00 96 1012.2
20260507054753 53 173 1.0 2.0 0.00 0.32 0.00 96 1012.1
20260507054253 53 277 0.0 0.0 0.00 0.32 0.00 96 1012.1
20260507053750 53 277 0.0 0.0 0.00 0.32 0.00 96 1012.1
20260507053250 53 277 0.0 0.0 0.00 0.32 0.00 96 1012.0
20260507052750 52 277 0.0 1.0 0.00 0.32 0.00 96 1012.0
20260507052250 52 277 0.0 2.0 0.00 0.32 0.00 96 1012.0
20260507051753 53 275 2.0 3.0 0.00 0.32 0.00 95 1011.9
20260507051250 53 179 0.0 1.0 0.00 0.32 0.00 96 1011.9
20260507050753 53 250 0.0 0.0 0.00 0.32 0.00 96 1011.8
20260507050253 53 250 0.0 0.0 0.00 0.32 0.00 96 1011.7
20260507045753 53 250 0.0 1.0 0.00 0.32 0.00 96 1011.7
20260507045250 53 250 0.0 2.0 0.00 0.32 0.00 96 1011.7
20260507044753 53 250 1.0 2.0 0.00 0.32 0.00 96 1011.7
20260507044256 52 126 0.0 1.0 0.00 0.32 0.00 96 1011.6
20260507043754 52 126 0.0 1.0 0.00 0.32 0.00 96 1011.6
20260507043256 52 126 1.0 3.0 0.00 0.32 0.00 95 1011.6
20260507042759 52 84 0.0 2.0 0.00 0.32 0.00 95 1011.6
20260507042250 52 87 1.0 2.0 0.00 0.32 0.00 95 1011.5
20260507041753 52 126 0.0 2.0 0.00 0.33 0.00 95 1011.5
20260507041256 52 126 1.0 2.0 0.00 0.33 0.00 96 1011.5
20260507040751 52 126 1.0 2.0 0.00 0.33 0.00 95 1011.4
20260507040254 52 126 0.0 1.0 0.00 0.33 0.00 95 1011.5
20260507035750 52 126 0.0 0.0 0.00 0.33 0.00 95 1011.5
20260507035251 52 126 0.0 1.0 0.00 0.33 0.00 95 1011.5
20260507034753 52 126 0.0 0.0 0.00 0.33 0.00 95 1011.5
20260507034253 52 126 0.0 2.0 0.00 0.33 0.00 95 1011.4
20260507033756 52 157 2.0 2.0 0.00 0.35 0.00 95 1011.4
20260507033253 52 279 0.0 2.0 0.00 0.37 0.00 95 1011.4
20260507032753 52 345 1.0 2.0 0.00 0.39 0.00 95 1011.3
20260507032250 52 355 1.0 2.0 0.00 0.42 0.00 95 1011.3
20260507031750 52 355 0.0 2.0 0.00 0.49 0.00 95 1011.3
20260507031250 52 282 0.0 1.0 0.00 0.53 0.00 95 1011.3
20260507030756 52 275 1.0 3.0 0.00 0.61 0.00 95 1011.3
20260507030254 52 111 0.0 4.0 0.00 0.65 0.00 95 1011.2
20260507025750 52 165 1.0 2.0 0.00 0.73 0.00 95 1011.3
20260507025257 52 281 1.0 1.0 0.00 0.78 0.00 95 1011.3
20260507024750 52 282 1.0 4.0 0.00 0.81 0.00 95 1011.3
20260507024250 52 142 1.0 5.0 0.00 0.85 0.00 95 1011.3
20260507023750 52 136 3.0 4.0 0.00 0.88 0.00 95 1011.2
20260507023251 52 142 2.0 2.0 0.00 0.90 0.00 95 1011.3
20260507022753 52 162 0.0 2.0 0.00 0.92 0.00 95 1011.4
20260507022256 52 162 0.0 2.0 0.00 0.95 0.00 95 1011.4
20260507021753 52 162 1.0 1.0 0.00 0.99 0.00 95 1011.4
20260507021250 52 162 1.0 2.0 0.00 1.03 0.00 95 1011.4
20260507020753 52 148 0.0 4.0 0.00 1.13 0.00 95 1011.4
20260507020253 52 244 0.0 2.0 0.00 1.19 0.00 95 1011.5
20260507015756 53 279 1.0 1.0 0.00 1.20 0.00 95 1011.4
20260507015254 53 283 0.0 1.0 0.00 1.21 0.00 95 1011.4
20260507014753 53 283 1.0 2.0 0.00 1.21 0.00 95 1011.4
20260507014253 53 283 2.0 2.0 0.00 1.22 0.00 95 1011.3
20260507013754 53 283 0.0 1.0 0.00 1.22 0.00 95 1011.3
20260507013250 53 283 0.0 2.0 0.00 1.22 0.00 95 1011.3
20260507012751 53 283 0.0 2.0 0.00 1.23 0.00 95 1011.4
20260507012256 53 283 0.0 0.0 0.00 1.24 0.00 95 1011.3
20260507011756 53 283 0.0 0.0 0.00 1.25 0.00 95 1011.4
20260507011251 53 283 0.0 1.0 0.00 1.25 0.00 95 1011.4
20260507010750 53 283 0.0 0.0 0.00 1.26 0.00 95 1011.4
20260507010253 53 283 0.0 1.0 0.00 1.27 0.00 95 1011.4
20260507005750 53 283 0.0 1.0 0.00 1.28 0.00 94 1011.4
20260507005254 54 283 0.0 1.0 0.00 1.30 0.00 94 1011.4
20260507004750 54 283 0.0 0.0 0.00 1.33 0.00 94 1011.3
20260507004250 54 283 0.0 0.0 0.00 1.42 0.00 94 1011.4
20260507003753 54 283 0.0 0.0 0.00 1.54 0.00 95 1011.4
20260507003250 54 283 0.0 1.0 0.00 1.54 0.00 94 1011.4
20260507002757 54 283 0.0 1.0 0.00 1.54 0.00 94 1011.5
20260507002250 54 283 0.0 1.0 0.00 1.54 0.00 94 1011.4
20260507001751 54 283 0.0 1.0 0.00 1.55 0.00 94 1011.4
20260507001253 54 283 0.0 1.0 0.00 1.55 0.00 94 1011.5
20260507000757 54 283 0.0 0.0 0.00 1.55 0.00 94 1011.5
20260507000251 55 283 0.0 1.0 0.00 1.55 0.00 94 1011.6
20260506235801 55 283 0.0 1.0 0.00 1.55 0.00 94 1011.6
20260506235250 55 283 0.0 0.0 0.00 1.55 0.00 94 1011.6
20260506234756 55 283 0.0 0.0 0.00 1.55 0.00 94 1011.6
20260506234254 55 283 0.0 1.0 0.00 1.66 0.00 94 1011.5
20260506233750 55 279 0.0 2.0 0.00 1.70 0.00 94 1011.5
20260506233250 55 298 1.0 2.0 0.00 1.73 0.00 94 1011.5
20260506232750 55 311 1.0 4.0 0.00 1.74 0.00 94 1011.4
20260506232250 55 313 1.0 4.0 0.01 1.74 0.00 94 1011.5
20260506231750 55 139 0.0 3.0 0.01 1.74 0.00 94 1011.5
20260506231250 55 172 2.0 5.0 0.02 1.74 0.00 94 1011.5
20260506230750 55 65 0.0 1.0 0.03 1.74 0.00 93 1011.6
20260506230254 55 9 0.0 1.0 0.03 1.74 0.00 93 1011.7
20260506225754 55 9 0.0 1.0 0.03 1.74 0.00 93 1011.6
20260506225251 55 9 1.0 2.0 0.03 1.74 0.00 93 1011.5
20260506224750 55 9 0.0 0.0 0.02 1.74 0.00 93 1011.4
20260506224253 55 9 0.0 0.0 0.02 1.74 0.00 93 1011.4
20260506223753 55 9 0.0 0.0 0.02 1.74 0.00 93 1011.4
20260506223250 55 9 0.0 2.0 0.02 1.74 0.00 93 1011.5
20260506222753 56 5 2.0 4.0 0.02 1.74 0.00 92 1011.4
20260506222250 56 320 1.0 3.0 0.01 1.74 0.00 92 1011.6
20260506221752 56 277 2.0 7.0 0.01 1.74 0.00 92 1011.5
20260506221253 56 146 1.0 4.0 0.00 1.73 0.00 92 1011.5
20260506220750 56 168 4.0 7.0 0.00 1.72 0.00 92 1011.6
20260506220250 56 184 1.0 3.0 0.00 1.72 0.00 92 1011.5
20260506215757 56 157 3.0 4.0 0.00 1.72 0.00 92 1011.5
20260506215250 56 170 1.0 3.0 0.00 1.72 0.00 92 1011.5
20260506214753 56 180 0.0 1.0 0.02 1.72 0.00 92 1011.4
20260506214253 56 180 0.0 1.0 0.03 1.72 0.00 91 1011.4
20260506213756 56 165 0.0 4.0 0.03 1.72 0.00 91 1011.4
20260506213251 56 159 1.0 4.0 0.03 1.72 0.00 91 1011.4
20260506212750 56 167 0.0 5.0 0.03 1.72 0.00 91 1011.3
20260506212251 56 135 0.0 4.0 0.03 1.72 0.00 91 1011.4
20260506211750 56 182 3.0 3.0 0.03 1.72 0.00 90 1011.4
20260506211253 56 192 2.0 4.0 0.03 1.72 0.00 90 1011.3